Location: Newark
(42.8481°N, 0.4872°E)
Time: 23:43:29
(UTC+00:00)

Transit 2A Rocket - Pass Details

Date: 31 October 2020
Orbit: 588 x 914 km, 66.7° (Epoch: 29 November)

Event Time Altitude Azimuth Distance (km) Brightness Sun altitude
Rises 06:57:10 0° 151° (SSE) 3,531 9.4 3.6°
Reaches altitude 10° 07:01:34 10° 121° (ESE) 2,596 10.2 4.3°
Maximum altitude 07:03:36 12° 101° (ESE) 2,464 9.6 4.6°
Drops below altitude 10° 07:05:37 10° 82° (E) 2,582 8.8 5.0°
Sets 07:09:57 0° 52° (NE) 3,486 8.8 5.7°
